Wind_Speed
27 27 27 27 26 26 26 26 27 27 27 27 27 27 28 29 29 30 31 32 33 33 34 34 34 34 33 33 32 32 32 32 32 32 32 33 33 34 34 33 33 32 31
28 28 28 28 28 28 28 28 28 28 28 28 28 29 30 30 31 31 32 32 32 33 33 34 34 34 34 34 34 34 34 34 35 35 35 35 35 35 36 36 35 35 35
29 29 29 29 29 29 29 29 29 29 29 29 30 30 30 30 31 31 32 32 33 33 34 34 34 34 34 35 35 36 36 36 36 37 38 38 38 38 39 39 39 39 39
30 30 30 30 30 30 30 30 30 30 30 30 30 30 30 31 31 32 33 33 33 34 34 34 34 35 35 36 36 37 37 38 38 39 40 40 41 42 42 42 42 43 43
32 32 31 31 31 31 31 31 31 31 32 32 31 31 31 32 33 34 34 34 34 34 34 34 34 34 35 35 36 37 38 38 39 39 40 41 42 43 43 44 45 45 45
35 34 33 33 33 32 32 32 32 33 33 33 33 33 33 34 34 35 35 34 34 34 34 34 34 34 35 36 37 37 38 39 39 40 41 42 42 43 45 45 46 47 47
38 37 36 36 36 35 35 34 34 34 34 34 34 35 35 35 35 35 35 35 35 35 35 35 35 35 36 37 37 38 39 40 41 41 42 43 44 45 46 47 48 49 50
40 40 39 39 39 39 38 37 37 37 37 36 36 36 36 36 36 36 36 36 36 36 36 36 36 36 37 38 39 40 40 41 42 43 44 44 45 47 48 49 50 51 52
44 43 43 42 42 41 40 40 40 40 39 39 39 38 38 38 38 38 38 38 37 37 37 37 38 38 39 40 41 42 43 44 45 46 47 47 48 49 50 51 52 53 54
47 47 46 45 45 45 44 43 43 43 42 42 41 41 40 40 40 39 39 39 39 39 39 40 40 41 42 42 43 44 45 46 47 48 49 50 51 52 53 54 55 56 57
50 49 49 48 48 47 47 46 46 46 45 45 44 43 42 42 42 42 41 41 41 42 42 42 43 44 45 45 46 47 48 49 50 51 52 53 54 55 56 57 58 59 60
52 52 52 51 50 50 49 49 48 48 48 48 47 46 45 45 44 44 44 44 44 44 44 45 46 47 48 49 50 51 52 53 54 55 56 57 58 59 60 61 62 63 64
56 55 54 54 53 52 52 51 51 50 50 50 49 48 47 47 46 46 46 46 46 46 47 48 49 51 52 53 54 55 56 57 58 59 60 61 62 63 64 65 65 66 67
60 59 58 57 56 55 54 54 54 53 52 51 51 50 49 49 48 48 48 48 48 49 50 51 52 55 56 57 58 59 60 62 63 64 65 66 67 67 68 68 69 69 70
64 62 60 59 57 56 56 56 55 55 54 53 52 52 51 51 49 49 49 50 51 52 52 53 56 58 59 61 62 63 64 66 67 68 68 69 70 70 71 71 72 73 73
65 64 62 60 59 58 57 57 57 56 55 54 52 53 53 51 50 51 51 51 52 54 54 56 59 61 63 64 65 67 68 69 70 70 71 71 72 73 73 74 76 77 78
64 63 62 60 59 58 57 56 56 56 55 53 53 52 51 51 50 51 52 53 54 56 58 60 62 64 66 68 70 71 72 72 72 73 74 74 75 76 77 79 80 82 84
62 61 60 58 57 56 55 55 54 54 53 52 51 51 51 50 51 52 54 56 58 60 62 63 65 67 69 71 72 72 73 73 74 75 77 78 79 81 82 84 85 86 87
57 56 56 55 54 54 53 52 51 51 50 50 50 50 50 50 51 53 56 59 61 64 65 66 68 70 72 73 73 73 74 75 77 79 80 81 83 84 85 85 85 84 82
50 51 51 50 49 49 48 48 48 47 47 48 48 49 49 51 52 56 58 61 64 66 68 69 71 72 73 74 75 75 75 77 79 82 83 84 85 85 85 84 81 78 75
43 43 43 43 43 43 42 43 43 43 44 45 45 47 49 51 53 57 60 63 66 67 69 70 72 73 74 75 77 78 78 79 81 83 83 83 82 80 78 76 73 71 69
34 35 35 36 36 36 37 38 39 40 41 42 44 47 50 52 55 59 62 64 66 68 70 71 73 74 76 78 79 80 81 81 81 81 79 75 74 71 68 66 65 64 63
25 27 28 29 30 31 33 34 36 37 39 42 46 48 50 54 56 59 62 64 66 69 72 73 75 77 78 80 80 80 80 78 75 73 70 65 64 61 59 59 60 60 59
20 22 23 24 26 28 30 32 33 36 40 43 46 49 51 54 57 60 62 64 67 70 73 75 77 78 79 79 78 76 73 68 64 63 63 59 55 55 54 55 56 56 55
16 17 18 21 24 26 29 31 34 37 40 43 46 49 51 54 57 60 63 66 69 72 75 76 77 76 75 74 71 66 60 57 54 54 55 52 49 48 47 47 49 50 49
13 15 18 20 22 25 28 32 35 37 40 42 45 48 52 55 58 62 65 68 71 73 74 74 73 71 68 63 58 53 51 49 47 45 45 44 42 42 38 37 41 44 44
Wind_Direction
278 279 279 281 281 282 282 282 282 283 283 284 285 286 286 287 287 288 287 286 286 286 286 286 286 286 285 285 285 285 285 284 283 281 279 277 276 274 274 274 274 274 274
275 276 277 278 278 279 280 281 282 282 283 284 285 286 287 287 289 289 289 289 288 288 288 287 286 285 284 283 283 283 283 283 282 281 280 278 277 276 274 274 273 273 273
272 274 275 276 277 278 279 280 281 281 282 283 284 286 287 288 289 290 291 290 289 289 288 287 286 285 284 283 282 282 282 282 282 281 279 278 277 276 276 275 274 273 272
270 272 273 275 276 278 278 279 281 281 281 283 284 285 287 288 289 291 291 291 290 290 290 288 286 285 284 283 283 282 282 282 282 281 280 279 278 277 276 275 274 273 272
268 270 272 274 275 276 277 278 279 280 281 283 284 285 286 287 289 290 291 291 291 291 291 290 289 287 286 285 284 284 284 283 283 282 281 280 279 278 277 276 275 273 272
265 268 269 271 273 274 275 276 278 279 281 282 283 284 285 287 288 290 291 291 292 292 292 292 291 289 289 288 287 286 286 285 284 283 282 281 280 279 278 277 276 274 273
264 266 268 270 271 273 274 275 277 278 280 281 282 283 284 286 288 290 291 291 292 292 292 293 292 292 292 292 291 289 289 288 287 285 284 283 282 280 279 278 277 275 274
264 265 266 267 269 271 273 274 275 276 278 279 280 282 283 285 287 289 290 291 292 292 292 293 293 293 293 293 292 291 291 290 289 288 286 285 283 282 280 279 278 276 275
262 262 263 265 267 269 271 273 274 276 276 277 278 280 282 284 286 288 289 290 291 292 292 293 292 292 293 293 293 292 292 292 291 290 289 287 286 284 282 280 278 277 276
259 261 262 264 266 268 270 272 273 275 277 278 278 278 280 283 285 287 288 289 290 291 292 293 292 292 293 293 292 293 293 293 292 292 290 289 288 286 284 283 281 279 278
259 261 262 263 265 267 268 270 272 274 275 277 277 278 280 282 283 286 287 288 289 290 292 291 291 291 292 293 293 293 293 293 293 292 291 290 289 288 286 285 283 282 281
257 259 260 262 263 265 267 268 270 272 274 275 276 278 280 282 283 284 286 287 288 289 290 291 290 290 292 293 293 294 294 294 294 294 293 292 291 289 288 287 285 284 283
256 257 258 259 260 262 264 266 268 270 272 274 275 277 279 281 282 283 285 286 287 288 290 291 290 291 292 293 295 295 295 295 295 294 294 292 291 290 288 287 286 284 283
256 256 256 257 258 260 262 264 266 268 270 272 275 276 278 281 282 283 284 285 286 287 289 290 290 292 293 294 294 295 295 295 294 294 293 292 291 290 289 287 286 284 283
255 255 255 256 257 258 260 262 264 266 268 271 273 276 278 280 282 283 284 284 285 286 288 289 290 291 293 294 294 295 295 295 294 293 292 292 291 289 288 287 286 285 283
254 255 254 255 255 256 257 260 262 265 267 270 272 275 277 279 281 283 284 284 285 286 287 289 290 292 293 294 294 295 295 295 294 292 291 291 290 289 288 287 286 285 284
253 253 253 253 254 256 257 259 261 264 267 269 271 273 276 278 281 281 283 284 285 286 287 289 291 292 293 294 295 296 296 295 294 293 292 291 290 290 289 288 287 286 285
251 252 252 253 254 255 257 259 262 264 266 269 271 274 276 278 280 280 282 283 285 287 289 290 292 293 294 295 295 296 296 295 295 294 293 292 292 291 290 289 288 287 286
249 250 251 252 254 255 257 259 261 264 266 269 271 273 275 276 279 282 284 285 286 288 290 292 293 294 295 295 296 296 296 296 295 294 294 294 293 293 292 291 290 289 287
246 248 250 251 254 257 259 260 262 265 267 269 271 273 274 276 279 282 283 286 288 290 291 293 294 295 296 296 297 296 296 296 296 295 295 295 295 294 293 291 290 289 287
245 246 248 251 254 257 259 261 262 264 267 269 271 274 275 277 280 283 286 289 291 293 294 295 296 296 297 297 297 297 297 297 297 296 297 296 295 294 293 292 291 289 287
242 244 247 250 253 255 258 260 262 264 267 270 273 275 278 279 281 285 288 291 293 295 295 296 297 298 298 298 298 298 298 297 297 297 297 297 296 295 294 293 291 290 289
237 240 242 247 251 254 257 259 261 265 269 272 275 278 281 284 287 289 293 294 296 297 298 298 299 299 299 299 298 299 299 300 300 298 298 298 296 296 294 293 291 290 289
230 235 240 244 248 254 257 261 265 269 273 276 279 283 287 289 292 294 296 298 299 299 300 301 301 301 300 300 300 301 301 301 301 300 299 300 297 296 295 293 292 291 290
228 233 238 244 250 256 262 267 271 276 278 281 285 288 292 294 296 298 299 300 301 302 302 302 302 302 302 302 303 303 303 303 303 302 302 303 301 299 298 296 295 294 294
233 239 246 256 263 267 271 274 277 281 286 289 292 295 297 299 300 301 302 303 303 303 303 304 304 304 305 305 305 306 306 307 308 307 306 308 307 306 303 298 296 297 298
Height
5823 5823 5823 5823 5823 5822 5822 5822 5821 5821 5820 5820 5819 5819 5818 5817 5816 5815 5814 5813 5812 5811 5810 5809 5808 5807 5806 5805 5804 5803 5802 5801 5800 5800 5799 5799 5799 5799 5799 5799 5798 5798 5798
5818 5818 5817 5817 5817 5817 5816 5816 5816 5815 5815 5814 5813 5812 5812 5811 5810 5809 5808 5806 5805 5804 5803 5802 5801 5799 5798 5798 5797 5796 5795 5794 5793 5792 5792 5791 5791 5790 5790 5790 5790 5790 5790
5812 5812 5811 5811 5811 5811 5811 5810 5810 5809 5809 5808 5807 5806 5805 5804 5803 5802 5801 5800 5799 5797 5796 5795 5793 5792 5791 5790 5789 5788 5787 5786 5785 5784 5783 5783 5782 5782 5781 5781 5781 5781 5781
5806 5806 5805 5805 5805 5805 5804 5804 5804 5803 5802 5802 5801 5800 5799 5798 5796 5795 5794 5793 5791 5790 5788 5787 5786 5784 5783 5782 5780 5779 5778 5777 5776 5775 5774 5773 5773 5772 5772 5771 5771 5771 5771
5799 5799 5799 5799 5798 5798 5798 5797 5797 5796 5796 5795 5794 5793 5792 5791 5790 5788 5787 5785 5784 5782 5781 5779 5778 5776 5775 5773 5772 5771 5769 5768 5767 5766 5764 5763 5763 5762 5761 5760 5760 5759 5759
5792 5792 5792 5792 5791 5791 5791 5790 5790 5789 5789 5788 5787 5787 5785 5784 5783 5781 5780 5778 5776 5775 5773 5771 5769 5768 5766 5765 5763 5762 5760 5758 5757 5756 5754 5753 5752 5751 5750 5749 5748 5748 5747
5784 5784 5785 5784 5784 5784 5784 5783 5783 5782 5782 5781 5780 5779 5778 5777 5775 5774 5772 5770 5769 5767 5765 5763 5761 5759 5758 5756 5754 5752 5750 5748 5747 5745 5744 5742 5741 5739 5738 5737 5736 5735 5734
5776 5776 5777 5776 5776 5776 5776 5776 5775 5775 5774 5773 5773 5771 5770 5770 5768 5766 5764 5762 5760 5758 5757 5755 5753 5751 5749 5747 5745 5743 5740 5738 5736 5734 5732 5730 5729 5727 5726 5724 5723 5722 5721
5766 5767 5767 5767 5767 5767 5767 5767 5767 5767 5766 5765 5764 5764 5762 5761 5760 5758 5756 5754 5752 5750 5748 5746 5744 5741 5739 5737 5735 5732 5730 5727 5725 5722 5720 5718 5716 5714 5712 5711 5709 5708 5707
5756 5756 5757 5758 5758 5758 5759 5758 5758 5758 5757 5756 5755 5754 5754 5752 5751 5749 5748 5745 5743 5741 5738 5736 5734 5731 5729 5727 5724 5722 5719 5716 5713 5710 5707 5705 5702 5700 5698 5696 5695 5693 5692
5745 5746 5747 5748 5748 5749 5749 5749 5749 5748 5748 5747 5746 5745 5743 5742 5741 5740 5738 5736 5734 5731 5728 5726 5723 5720 5718 5715 5713 5710 5707 5704 5701 5697 5694 5691 5688 5685 5683 5681 5679 5677 5675
5733 5735 5736 5737 5738 5738 5738 5739 5738 5738 5738 5737 5736 5735 5734 5732 5731 5730 5728 5726 5723 5720 5717 5714 5711 5708 5705 5702 5699 5697 5693 5690 5686 5683 5679 5676 5672 5669 5667 5664 5661 5659 5656
5720 5722 5723 5725 5726 5727 5727 5728 5728 5727 5727 5726 5726 5725 5723 5722 5721 5719 5717 5714 5712 5708 5705 5701 5698 5695 5691 5688 5685 5682 5678 5674 5671 5667 5663 5659 5655 5652 5649 5646 5643 5640 5637
5706 5708 5710 5711 5713 5714 5715 5716 5716 5716 5716 5715 5715 5714 5712 5711 5709 5707 5705 5703 5700 5697 5693 5689 5684 5681 5677 5674 5670 5666 5663 5658 5654 5649 5645 5641 5637 5633 5629 5626 5623 5619 5616
5690 5693 5696 5698 5700 5702 5703 5704 5704 5704 5704 5704 5704 5702 5701 5699 5697 5696 5693 5691 5688 5684 5681 5677 5672 5667 5662 5658 5654 5650 5646 5641 5636 5631 5626 5621 5617 5613 5609 5605 5601 5597 5594
5673 5677 5681 5684 5687 5689 5690 5691 5692 5692 5693 5693 5692 5691 5690 5688 5686 5683 5681 5677 5674 5671 5667 5664 5658 5653 5648 5643 5637 5633 5628 5623 5617 5612 5606 5601 5597 5592 5587 5583 5578 5574 5570
5657 5662 5666 5669 5673 5675 5677 5679 5680 5680 5681 5681 5681 5679 5678 5676 5673 5671 5667 5664 5660 5656 5653 5649 5643 5637 5632 5626 5620 5614 5609 5603 5597 5590 5584 5579 5574 5569 5563 5558 5553 5548 5543
5642 5647 5652 5656 5659 5662 5665 5667 5668 5669 5669 5669 5669 5668 5666 5664 5661 5658 5654 5650 5646 5642 5638 5633 5627 5621 5615 5608 5602 5596 5590 5583 5576 5569 5562 5556 5549 5543 5537 5530 5524 5519 5513
5628 5634 5639 5643 5647 5650 5653 5655 5657 5658 5658 5658 5657 5656 5654 5651 5648 5645 5641 5636 5632 5626 5621 5616 5611 5604 5597 5589 5583 5577 5570 5562 5554 5546 5538 5531 5524 5516 5508 5501 5495 5488 5482
5616 5622 5628 5632 5637 5640 5643 5645 5646 5647 5647 5647 5646 5644 5642 5639 5635 5632 5627 5622 5616 5611 5605 5599 5593 5586 5578 5570 5563 5557 5551 5542 5532 5521 5513 5505 5497 5488 5479 5472 5466 5459 5454
5606 5612 5618 5623 5627 5630 5633 5635 5636 5637 5637 5636 5634 5632 5630 5626 5623 5618 5613 5607 5601 5594 5588 5581 5575 5567 5559 5550 5543 5535 5528 5521 5510 5497 5490 5479 5469 5461 5452 5444 5438 5432 5428
5599 5605 5610 5615 5619 5622 5624 5626 5627 5627 5627 5625 5624 5621 5618 5614 5609 5604 5599 5592 5585 5578 5571 5564 5556 5548 5539 5530 5522 5513 5504 5497 5489 5475 5466 5458 5444 5438 5429 5422 5414 5408 5404
5594 5599 5604 5608 5611 5614 5616 5617 5618 5618 5617 5615 5613 5610 5606 5601 5596 5590 5584 5577 5568 5560 5552 5545 5536 5526 5518 5508 5500 5491 5481 5472 5462 5449 5442 5439 5426 5419 5411 5403 5395 5389 5384
5591 5595 5599 5602 5606 5608 5609 5610 5610 5609 5607 5605 5602 5598 5593 5588 5582 5576 5570 5561 5552 5542 5533 5524 5515 5505 5495 5485 5476 5468 5459 5451 5442 5429 5420 5419 5411 5403 5396 5386 5376 5370 5366
5589 5592 5596 5599 5601 5602 5603 5603 5602 5600 5597 5594 5590 5586 5580 5574 5568 5562 5554 5546 5536 5524 5513 5502 5492 5482 5473 5463 5455 5447 5439 5432 5427 5416 5403 5400 5394 5387 5381 5372 5361 5353 5349
5588 5591 5593 5595 5596 5596 5596 5595 5593 5591 5588 5583 5579 5574 5568 5561 5553 5545 5537 5527 5517 5506 5494 5482 5471 5461 5453 5444 5436 5430 5424 5417 5410 5403 5393 5387 5380 5372 5369 5362 5352 5343 5337